TimeMST,TemperatureF,Dew PointF,Humidity,Sea Level PressureIn,VisibilityMPH,Wind Direction,Wind SpeedMPH,Gust SpeedMPH,PrecipitationIn,Events,Conditions,WindDirDegrees,DateUTC
12:56 AM,28.9,15.1,56,29.78,10.0,SSW,18.4,-,N/A,,Clear,200,2012-12-14 07:56:00
1:56 AM,30.0,15.1,54,29.76,10.0,SSW,20.7,-,N/A,,Clear,200,2012-12-14 08:56:00
2:56 AM,30.9,16.0,54,29.76,10.0,SSW,20.7,-,N/A,,Clear,200,2012-12-14 09:56:00
3:56 AM,30.0,17.1,59,29.76,10.0,SSW,18.4,-,N/A,,Clear,200,2012-12-14 10:56:00
4:56 AM,28.0,17.1,63,29.77,10.0,South,17.3,-,N/A,,Clear,190,2012-12-14 11:56:00
5:56 AM,28.0,17.1,63,29.77,10.0,SSW,15.0,-,N/A,,Clear,200,2012-12-14 12:56:00
6:56 AM,30.0,17.1,59,29.75,10.0,SSW,18.4,-,N/A,,Clear,200,2012-12-14 13:56:00
7:56 AM,28.9,17.1,61,29.76,10.0,SSW,15.0,-,N/A,,Clear,200,2012-12-14 14:56:00
8:56 AM,30.0,18.0,61,29.77,10.0,SSW,9.2,-,N/A,,Clear,200,2012-12-14 15:56:00
9:56 AM,34.0,19.0,54,29.79,10.0,West,5.8,-,N/A,,Clear,260,2012-12-14 16:56:00
10:56 AM,36.0,19.9,52,29.77,10.0,SSW,11.5,-,N/A,,Clear,200,2012-12-14 17:56:00
11:56 AM,39.0,21.0,49,29.75,10.0,SSW,9.2,-,N/A,,Clear,200,2012-12-14 18:56:00
12:56 PM,39.9,21.0,47,29.72,10.0,South,11.5,-,N/A,,Clear,190,2012-12-14 19:56:00
1:56 PM,41.0,19.9,43,29.72,10.0,South,13.8,-,N/A,,Clear,190,2012-12-14 20:56:00
2:56 PM,39.9,21.0,47,29.72,10.0,SSW,12.7,-,N/A,,Clear,200,2012-12-14 21:56:00
3:56 PM,34.0,21.9,61,29.75,10.0,South,8.1,-,N/A,,Clear,190,2012-12-14 22:56:00
4:56 PM,30.9,19.0,61,29.78,10.0,South,10.4,-,N/A,,Clear,180,2012-12-14 23:56:00
5:56 PM,26.1,18.0,71,29.82,10.0,SSW,8.1,-,N/A,,Clear,200,2012-12-15 00:56:00
6:56 PM,25.0,17.1,72,29.83,10.0,SW,3.5,-,N/A,,Clear,220,2012-12-15 01:56:00
7:56 PM,30.9,17.1,57,29.84,10.0,WSW,4.6,-,N/A,,Clear,240,2012-12-15 02:56:00